DW6513 Weather Reports


time (UTC)temp
C
wind
direction
speed
KPH
gust
KPH
rain 1hr
cm
rain 24hr
cm
rain mn
cm
humidity
%
barometer
mb
20260901043304 26 100 0.0 3.2 0.00 0.00 0.00 61 1016.4
20260901041803 26 222 3.2 4.8 0.00 0.00 0.00 60 1016.4
20260901041304 26 117 4.8 8.0 0.00 0.00 0.00 60 1016.4
20260901040804 27 108 6.4 12.9 0.00 0.00 0.00 59 1016.4
20260901040304 27 140 4.8 11.3 0.00 0.00 0.00 59 1016.4
20260901035803 27 83 3.2 11.3 0.00 0.00 0.00 58 1016.4
20260901035305 27 100 1.6 9.7 0.00 0.00 0.00 58 1016.4
20260901034304 27 85 4.8 9.7 0.00 0.00 0.00 57 1016.6
20260901033804 27 95 4.8 9.7 0.00 0.00 0.00 57 1016.6
20260901033303 27 120 3.2 8.0 0.00 0.00 0.00 57 1016.6
20260901032306 27 181 1.6 8.0 0.00 0.00 0.00 57 1016.3
20260901031805 27 197 1.6 8.0 0.00 0.00 0.00 57 1016.3
20260901030803 27 140 0.0 4.8 0.00 0.00 0.00 56 1016.2
20260901030304 27 150 0.0 3.2 0.00 0.00 0.00 56 1016.2
20260901025803 27 341 0.0 4.8 0.00 0.00 0.00 56 1016.2
20260901025306 27 102 1.6 8.0 0.00 0.00 0.00 56 1016.2
20260901024803 27 109 1.6 8.0 0.00 0.00 0.00 56 1016.1
20260901023803 27 159 1.6 8.0 0.00 0.00 0.00 56 1016.1
20260901023304 28 145 1.6 9.7 0.00 0.00 0.00 56 1016.1
20260901022306 28 141 1.6 0.0 0.00 0.00 0.00 54 1016.2
20260901021803 28 339 1.6 9.7 0.00 0.00 0.00 55 1016.2
20260901021303 28 148 0.0 3.2 0.00 0.00 0.00 54 1016.2
20260901020303 28 97 0.0 0.0 0.00 0.00 0.00 54 1015.5
20260901015803 28 83 0.0 0.0 0.00 0.00 0.00 54 1015.5
20260901015305 29 102 0.0 3.2 0.00 0.00 0.00 54 1015.5
20260901014804 29 136 0.0 0.0 0.00 0.00 0.00 55 1015.8
20260901014303 29 60 0.0 0.0 0.00 0.00 0.00 53 1015.9
20260901013803 29 100 0.0 0.0 0.00 0.00 0.00 52 1015.9
20260901013304 29 321 0.0 4.8 0.00 0.00 0.00 50 1015.9
20260901012804 29 327 0.0 4.8 0.00 0.00 0.00 50 1015.6
20260901011804 30 353 0.0 0.0 0.00 0.00 0.00 49 1015.5
20260901010803 30 173 1.6 4.8 0.00 0.00 0.00 48 1015.3
20260901010304 30 119 1.6 4.8 0.00 0.00 0.00 47 1015.2
20260901005804 30 106 1.6 4.8 0.00 0.00 0.00 45 1015.2
20260901005306 30 64 0.0 4.8 0.00 0.00 0.00 43 1015.2
20260901004803 31 289 1.6 0.0 0.00 0.00 0.00 41 1015.1
20260901004303 31 188 3.2 8.0 0.00 0.00 0.00 41 1015.1
20260901003804 31 114 3.2 8.0 0.00 0.00 0.00 40 1015.1
20260901003304 31 124 3.2 4.8 0.00 0.00 0.00 39 1015.1
20260901002803 31 331 3.2 4.8 0.00 0.00 0.00 38 1015.2
20260901002305 31 103 3.2 8.0 0.00 0.00 0.00 37 1015.2
20260901001804 32 145 1.6 8.0 0.00 0.00 0.00 37 1015.2
20260901001304 32 124 1.6 8.0 0.00 0.00 0.00 37 1015.2
20260901000304 32 145 3.2 8.0 0.00 0.00 0.00 35 1015.2
20260831235804 32 150 3.2 8.0 0.00 0.00 0.00 35 1015.2
20260831235306 33 122 1.6 8.0 0.00 0.00 0.00 34 1015.2
20260831234804 33 100 3.2 8.0 0.00 0.00 0.00 34 1015.4
20260831234304 33 119 3.2 9.7 0.00 0.00 0.00 34 1015.4
20260831233804 33 84 3.2 12.9 0.00 0.00 0.00 34 1015.4
20260831232803 34 145 4.8 11.3 0.00 0.00 0.00 31 1015.0
20260831232305 35 100 3.2 11.3 0.00 0.00 0.00 31 1014.9
20260831231803 35 91 3.2 9.7 0.00 0.00 0.00 29 1014.9
20260831231304 36 122 3.2 8.0 0.00 0.00 0.00 28 1014.9
20260831230304 37 146 3.2 4.8 0.00 0.00 0.00 25 1015.1
20260831225306 38 78 3.2 8.0 0.00 0.00 0.00 24 1015.1
20260831224804 39 135 3.2 12.9 0.00 0.00 0.00 24 1015.2
20260831224304 39 144 3.2 8.0 0.00 0.00 0.00 24 1015.2
20260831223803 38 242 4.8 4.8 0.00 0.00 0.00 24 1015.2
20260831223304 38 170 3.2 11.3 0.00 0.00 0.00 24 1015.2
20260831222807 38 135 8.0 11.3 0.00 0.00 0.00 31 1015.6
20260831195804 37 145 8.0 12.9 0.00 0.00 0.00 31 1015.6
20260831195306 37 122 8.0 14.5 0.00 0.00 0.00 31 1015.6
20260831194804 37 253 8.0 24.1 0.00 0.00 0.00 30 1015.8
20260831194304 37 220 8.0 24.1 0.00 0.00 0.00 29 1015.8
20260831193803 37 145 4.8 11.3 0.00 0.00 0.00 31 1015.8
20260831192803 37 122 4.8 11.3 0.00 0.00 0.00 33 1016.2
20260831192305 37 95 3.2 9.7 0.00 0.00 0.00 32 1016.2
20260831191804 37 302 4.8 11.3 0.00 0.00 0.00 32 1016.2
20260831191304 37 151 8.0 11.3 0.00 0.00 0.00 33 1016.2
20260831190804 37 212 8.0 9.7 0.00 0.00 0.00 33 1016.4
20260831185804 36 280 4.8 9.7 0.00 0.00 0.00 35 1016.4
20260831185306 36 212 3.2 16.1 0.00 0.00 0.00 36 1016.4
20260831184803 37 145 4.8 16.1 0.00 0.00 0.00 35 1016.4
20260831183804 37 258 3.2 9.7 0.00 0.00 0.00 38 1016.4
20260831183304 37 107 4.8 9.7 0.00 0.00 0.00 38 1016.4
20260831182804 36 302 8.0 11.3 0.00 0.00 0.00 40 1016.6
20260831181804 36 78 9.7 14.5 0.00 0.00 0.00 41 1016.6
20260831181304 35 60 8.0 20.9 0.00 0.00 0.00 40 1016.6
20260831180804 35 122 8.0 20.9 0.00 0.00 0.00 40 1016.9
20260831180304 34 194 8.0 24.1 0.00 0.00 0.00 43 1016.9
20260831175306 34 218 4.8 19.3 0.00 0.00 0.00 44 1016.9
20260831174304 33 3 3.2 4.8 0.00 0.00 0.00 45 1017.0
20260831173803 33 78 4.8 9.7 0.00 0.00 0.00 46 1017.0
20260831173304 33 128 8.0 16.1 0.00 0.00 0.00 46 1017.0
20260831172803 32 78 8.0 16.1 0.00 0.00 0.00 46 1017.4
20260831172306 32 162 4.8 12.9 0.00 0.00 0.00 46 1017.4
20260831171804 32 122 3.2 9.7 0.00 0.00 0.00 47 1017.4
20260831171303 32 214 3.2 9.7 0.00 0.00 0.00 47 1017.4
20260831170804 32 212 3.2 9.7 0.00 0.00 0.00 47 1017.7
20260831170304 32 134 4.8 12.9 0.00 0.00 0.00 47 1017.7
20260831165804 31 145 4.8 20.9 0.00 0.00 0.00 48 1017.7
20260831165305 31 141 4.8 20.9 0.00 0.00 0.00 48 1017.7
20260831164303 31 241 3.2 8.0 0.00 0.00 0.00 49 1017.8
20260831163804 31 235 4.8 4.8 0.00 0.00 0.00 49 1017.8
20260831163304 31 117 4.8 8.0 0.00 0.00 0.00 49 1017.8
20260831162803 31 168 3.2 8.0 0.00 0.00 0.00 50 1017.6
20260831162306 31 280 4.8 11.3 0.00 0.00 0.00 49 1017.6
20260831161804 30 145 4.8 11.3 0.00 0.00 0.00 50 1017.6
20260831161304 30 302 4.8 9.7 0.00 0.00 0.00 50 1017.6
20260831160304 30 80 4.8 8.0 0.00 0.00 0.00 50 1017.6
20260831155805 30 100 3.2 8.0 0.00 0.00 0.00 52 1017.6
20260831155306 30 131 3.2 8.0 0.00 0.00 0.00 51 1017.6
20260831154804 30 78 3.2 4.8 0.00 0.00 0.00 53 1017.7
20260831154303 29 233 4.8 8.0 0.00 0.00 0.00 53 1017.7
20260831153804 29 145 4.8 8.0 0.00 0.00 0.00 53 1017.7
20260831152804 29 212 4.8 3.2 0.00 0.00 0.00 54 1017.4
20260831152306 28 66 4.8 14.5 0.00 0.00 0.00 54 1017.4
20260831151803 28 168 4.8 12.9 0.00 0.00 0.00 54 1017.4
20260831151303 28 145 4.8 12.9 0.00 0.00 0.00 54 1017.4
20260831150804 28 122 3.2 14.5 0.00 0.00 0.00 55 1017.5
20260831150304 28 90 4.8 14.5 0.00 0.00 0.00 55 1017.5
20260831145804 28 122 6.4 11.3 0.00 0.00 0.00 56 1017.5
20260831145306 27 100 4.8 11.3 0.00 0.00 0.00 57 1017.5
20260831144804 27 100 3.2 8.0 0.00 0.00 0.00 57 1017.7
20260831144304 27 21 1.6 8.0 0.00 0.00 0.00 58 1017.7
20260831143803 27 129 1.6 4.8 0.00 0.00 0.00 58 1017.7
20260831143304 27 280 3.2 8.0 0.00 0.00 0.00 58 1017.7
20260831142803 26 132 3.2 8.0 0.00 0.00 0.00 59 1017.8
20260831141804 26 41 3.2 9.7 0.00 0.00 0.00 59 1017.8
20260831141303 26 145 1.6 8.0 0.00 0.00 0.00 60 1017.8
20260831140304 26 163 1.6 11.3 0.00 0.00 0.00 60 1017.5
20260831135804 26 100 1.6 9.7 0.00 0.00 0.00 60 1017.5
20260831135306 25 248 1.6 8.0 0.00 0.00 0.00 61 1017.5
20260831134804 25 122 1.6 8.0 0.00 0.00 0.00 61 1017.5
20260831134304 25 235 1.6 4.8 0.00 0.00 0.00 62 1017.5
20260831133804 25 122 1.6 0.0 0.00 0.00 0.00 63 1017.5
20260831132803 24 280 0.0 4.8 0.00 0.00 0.00 67 1017.2
20260831132306 24 280 0.0 0.0 0.00 0.00 0.00 67 1017.2
20260831131804 24 145 1.6 3.2 0.00 0.00 0.00 67 1017.2
20260831130804 23 122 0.0 0.0 0.00 0.00 0.00 68 1016.9
20260831130304 23 78 0.0 0.0 0.00 0.00 0.00 68 1016.9
20260831125803 23 127 0.0 0.0 0.00 0.00 0.00 68 1016.9
20260831124804 23 275 0.0 0.0 0.00 0.00 0.00 69 1016.9
20260831124303 22 207 0.0 0.0 0.00 0.00 0.00 69 1016.9
20260831123803 22 135 0.0 0.0 0.00 0.00 0.00 69 1016.9
20260831123303 22 206 0.0 0.0 0.00 0.00 0.00 69 1016.9
20260831122804 22 78 0.0 0.0 0.00 0.00 0.00 70 1016.7
20260831122306 22 233 0.0 0.0 0.00 0.00 0.00 70 1016.7
20260831121304 22 145 0.0 0.0 0.00 0.00 0.00 70 1016.7
20260831120803 22 128 0.0 0.0 0.00 0.00 0.00 70 1016.7
20260831120303 22 49 0.0 0.0 0.00 0.00 0.00 70 1016.7
20260831115804 21 178 0.0 0.0 0.00 0.00 0.00 70 1016.7
20260831115306 21 98 0.0 0.0 0.00 0.00 0.00 70 1016.7
20260831114804 21 299 0.0 0.0 0.00 0.00 0.00 70 1016.6
20260831114303 22 252 1.6 0.0 0.00 0.00 0.00 70 1016.6
20260831113804 22 122 1.6 4.8 0.00 0.00 0.00 70 1016.6
20260831113304 22 101 0.0 4.8 0.00 0.00 0.00 70 1016.6
20260831112804 22 145 0.0 0.0 0.00 0.00 0.00 69 1016.6
20260831112306 22 107 0.0 0.0 0.00 0.00 0.00 69 1016.6
20260831111803 22 112 0.0 0.0 0.00 0.00 0.00 69 1016.6
20260831111304 22 104 0.0 0.0 0.00 0.00 0.00 69 1016.6
20260831110804 22 2 0.0 0.0 0.00 0.00 0.00 69 1016.6
20260831105804 22 140 0.0 0.0 0.00 0.00 0.00 69 1016.6
20260831105306 22 171 0.0 0.0 0.00 0.00 0.00 69 1016.6
20260831104803 22 177 0.0 0.0 0.00 0.00 0.00 69 1016.3
20260831103804 22 258 0.0 0.0 0.00 0.00 0.00 69 1016.3
20260831103303 20 163 0.0 3.2 0.00 0.00 0.00 69 1016.3
20260831102804 21 102 0.0 3.2 0.00 0.00 0.00 69 1016.7
20260831102305 21 100 0.0 0.0 0.00 0.00 0.00 68 1016.8
20260831101804 21 153 0.0 0.0 0.00 0.00 0.00 69 1016.8
20260831100804 21 147 0.0 0.0 0.00 0.00 0.00 68 1017.0
20260831095804 21 175 0.0 0.0 0.00 0.00 0.00 68 1017.0
20260831094804 21 141 0.0 0.0 0.00 0.00 0.00 68 1016.8
20260831094303 21 144 0.0 0.0 0.00 0.00 0.00 68 1016.8
20260831093804 21 92 0.0 0.0 0.00 0.00 0.00 67 1016.8
20260831092306 21 280 0.0 0.0 0.00 0.00 0.00 66 1016.7
20260831091804 21 190 0.0 0.0 0.00 0.00 0.00 66 1016.7
20260831091304 21 121 0.0 0.0 0.00 0.00 0.00 66 1016.7
20260831085804 21 78 0.0 0.0 0.00 0.00 0.00 65 1016.4
20260831085306 21 122 0.0 0.0 0.00 0.00 0.00 66 1016.4
20260831084804 21 170 0.0 0.0 0.00 0.00 0.00 65 1016.3
20260831084304 21 122 0.0 0.0 0.00 0.00 0.00 66 1016.3
20260831083804 21 197 0.0 0.0 0.00 0.00 0.00 65 1016.3
20260831083304 21 142 0.0 0.0 0.00 0.00 0.00 65 1016.3
20260831082804 21 172 0.0 0.0 0.00 0.00 0.00 65 1016.4
20260831082306 21 144 0.0 0.0 0.00 0.00 0.00 66 1016.4
20260831080804 21 287 0.0 0.0 0.00 0.00 0.00 66 1016.2
20260831080304 21 301 0.0 0.0 0.00 0.00 0.00 67 1016.2
20260831075803 21 85 0.0 0.0 0.00 0.00 0.00 66 1016.2
20260831075306 21 302 0.0 0.0 0.00 0.00 0.00 67 1016.2
20260831074804 21 31 0.0 0.0 0.00 0.00 0.00 67 1016.3
20260831074304 21 146 0.0 0.0 0.00 0.00 0.00 67 1016.3
20260831073804 21 153 0.0 0.0 0.00 0.00 0.00 67 1016.3
20260831072804 22 220 0.0 0.0 0.00 0.00 0.00 67 1016.3
20260831072306 22 147 0.0 0.0 0.00 0.00 0.00 67 1016.3
20260831071804 21 117 0.0 0.0 0.00 0.00 0.00 68 1016.3
20260831071305 21 144 0.0 0.0 0.00 0.00 0.00 68 1016.3
20260831070804 21 226 0.0 0.0 0.00 0.00 0.00 68 1016.6
20260831070304 21 168 0.0 0.0 0.00 0.00 0.00 68 1016.6
20260831065804 21 147 0.0 0.0 0.00 0.00 0.00 68 1016.6
20260831065306 21 144 0.0 0.0 0.00 0.00 0.00 68 1016.6
20260831064304 21 145 0.0 0.0 0.00 0.00 0.00 68 1016.9
20260831063804 21 153 0.0 0.0 0.00 0.00 0.00 69 1016.9
20260831063303 21 121 0.0 0.0 0.00 0.00 0.00 69 1016.9
20260831062305 21 78 0.0 0.0 0.00 0.00 0.00 70 1016.8
20260831061303 21 100 0.0 0.0 0.00 0.00 0.00 58 1016.8
20260831060804 25 145 0.0 0.0 0.00 0.00 0.00 56 1015.5
20260831060303 25 145 0.0 0.0 0.00 0.00 0.00 56 1015.5
20260831055804 25 145 0.0 0.0 0.00 0.00 0.00 56 1015.5
20260831055306 25 145 0.0 0.0 0.00 0.00 0.00 56 1015.5
20260831054804 25 145 0.0 0.0 0.00 0.00 0.00 56 1015.5
20260831053806 25 145 0.0 0.0 0.00 0.00 0.00 56 1015.5
20260831052803 25 145 0.0 0.0 0.00 0.00 0.00 56 1015.5
20260831052306 25 145 0.0 0.0 0.00 0.00 0.00 56 1015.5
20260831050822 25 145 0.0 0.0 0.00 0.00 0.00 56 1015.5
20260831050303 25 145 0.0 0.0 0.00 0.00 0.00 56 1015.5
20260831045306 25 145 0.0 0.0 0.00 0.00 0.00 56 1015.5
20260831044804 25 145 0.0 0.0 0.00 0.00 0.00 56 1015.5
20260831044304 25 145 0.0 0.0 0.00 0.00 0.00 56 1015.5